DLH730 EDDM-VHHH

Flight info

Callsign DLH730
Flight time N/A
Altitude 33000
Route KIRDI4N KIRDI DCT STEIN DCT TEGRI DCT ENIMA DCT DINRO N743 UDROS UM859 KARDE UN644 FALAZ/N0485F350 UN644 ROLIN N644 LAGAS M747 LUSAL N199 RASAM L88 METKA B476 DARVA/K0889F350 DCT OGOLI N193 SR L163 TISIB L141 MALEX/K0882F370 L141 KAMUD/K0878S1130 W186 SADAN Y1 OMBON DCT OVRAL DCT NIXID/K0889S1190 B330 AVPAM A599 POU R473 VIBOS DCT SIERA
Aircraft A346/H-SDE2E3FGHIJ3J4J5M1RWXY/LB1D1

Departure

Time 2026-05-05 16:37
Airport Munich Airport (EDDM)

Arrival

Time N/A
Airport Hong Kong International Airport (VHHH)
Time Latitude Longitude Altitude Speed Heading
2026-05-05 16:08 48.35237 11.79360 1486 ft 0 kts 263°
2026-05-05 16:20 48.35239 11.79380 1485 ft 2 kts 263°
2026-05-05 16:20 48.35242 11.79417 1485 ft 2 kts 261°
2026-05-05 16:21 48.35255 11.79458 1485 ft 2 kts 224°
2026-05-05 16:22 48.35296 11.79482 1485 ft 1 kts 176°
2026-05-05 16:22 48.35302 11.79481 1485 ft 0 kts 173°
2026-05-05 16:24 48.35257 11.79490 1485 ft 7 kts 174°
2026-05-05 16:25 48.35197 11.79499 1485 ft 10 kts 174°
2026-05-05 16:25 48.35014 11.79529 1485 ft 15 kts 175°
2026-05-05 16:25 48.34909 11.79547 1485 ft 15 kts 173°
2026-05-05 16:26 48.34800 11.79685 1485 ft 13 kts 85°
2026-05-05 16:26 48.34826 11.80032 1484 ft 18 kts 84°
2026-05-05 16:27 48.34836 11.80170 1484 ft 10 kts 83°
2026-05-05 16:27 48.34842 11.80275 1484 ft 9 kts 96°
2026-05-05 16:27 48.34806 11.80368 1484 ft 11 kts 143°
2026-05-05 16:27 48.34732 11.80397 1484 ft 9 kts 173°
2026-05-05 16:28 48.34713 11.80401 1484 ft 0 kts 173°
2026-05-05 16:34 48.34678 11.80408 1484 ft 7 kts 173°
2026-05-05 16:35 48.34605 11.80421 1484 ft 12 kts 173°
2026-05-05 16:35 48.34523 11.80412 1484 ft 7 kts 190°
2026-05-05 16:35 48.34479 11.80381 1484 ft 6 kts 238°
2026-05-05 16:35 48.34468 11.80308 1484 ft 2 kts 261°
2026-05-05 16:36 48.34467 11.80297 1484 ft 11 kts 262°
2026-05-05 16:36 48.34432 11.79852 1485 ft 72 kts 262°
2026-05-05 16:36 48.34352 11.78827 1489 ft 124 kts 263°
2026-05-05 16:36 48.34234 11.77297 1495 ft 167 kts 263°
2026-05-05 16:37 48.34089 11.75429 1651 ft 186 kts 261°
2026-05-05 16:37 48.33939 11.73462 1951 ft 192 kts 260°
2026-05-05 16:37 48.33403 11.71688 2288 ft 191 kts 223°
2026-05-05 16:37 48.32199 11.70825 2579 ft 197 kts 188°
2026-05-05 16:38 48.30809 11.70794 2890 ft 200 kts 184°
2026-05-05 16:38 48.29416 11.70799 3157 ft 206 kts 180°
2026-05-05 16:38 48.28004 11.71418 3337 ft 221 kts 153°
2026-05-05 16:38 48.26669 11.72713 3545 ft 232 kts 147°
2026-05-05 16:39 48.25325 11.74134 3789 ft 242 kts 147°
2026-05-05 16:39 48.23929 11.75603 4152 ft 248 kts 147°
2026-05-05 16:39 48.22451 11.77129 4365 ft 265 kts 148°
2026-05-05 16:39 48.20881 11.78730 4659 ft 281 kts 148°
2026-05-05 16:40 48.19283 11.80452 5142 ft 289 kts 137°
2026-05-05 16:40 48.18228 11.83027 5746 ft 293 kts 103°
2026-05-05 16:40 48.18179 11.86023 6416 ft 292 kts 81°
2026-05-05 16:40 48.18468 11.89019 7037 ft 294 kts 82°
2026-05-05 16:41 48.18737 11.92106 7663 ft 297 kts 83°
2026-05-05 16:41 48.18982 11.95162 8272 ft 299 kts 84°
2026-05-05 16:41 48.19218 11.98257 8871 ft 301 kts 85°
2026-05-05 16:41 48.19444 12.01367 9456 ft 302 kts 85°
2026-05-05 16:42 48.19668 12.04486 10040 ft 304 kts 86°
2026-05-05 16:42 48.19888 12.07640 10594 ft 306 kts 86°
2026-05-05 16:42 48.20108 12.10834 11128 ft 309 kts 86°
2026-05-05 16:42 48.20330 12.14057 11655 ft 312 kts 86°
2026-05-05 16:43 48.20552 12.17291 12185 ft 314 kts 86°
2026-05-05 16:43 48.20776 12.20546 12699 ft 317 kts 86°
2026-05-05 16:43 48.21004 12.23869 13211 ft 319 kts 86°
2026-05-05 16:43 48.21227 12.27140 13715 ft 321 kts 86°
2026-05-05 16:44 48.21455 12.30504 14205 ft 324 kts 86°
2026-05-05 16:44 48.21684 12.33888 14692 ft 326 kts 86°
2026-05-05 16:44 48.21909 12.37249 15177 ft 328 kts 86°
2026-05-05 16:44 48.22139 12.40671 15650 ft 330 kts 86°
2026-05-05 16:45 48.22369 12.44110 16111 ft 333 kts 86°
2026-05-05 16:45 48.22597 12.47555 16570 ft 335 kts 86°
2026-05-05 16:45 48.22825 12.51027 17037 ft 336 kts 86°
2026-05-05 16:45 48.23019 12.54505 17489 ft 338 kts 89°
2026-05-05 16:46 48.22999 12.58011 17922 ft 339 kts 95°
2026-05-05 16:46 48.22741 12.61582 18134 ft 347 kts 99°
2026-05-05 16:46 48.22392 12.65228 18336 ft 357 kts 101°
2026-05-05 16:46 48.22028 12.68937 18526 ft 367 kts 100°
2026-05-05 16:47 48.21652 12.72804 18709 ft 378 kts 100°
2026-05-05 16:47 48.21273 12.76766 18902 ft 388 kts 100°
2026-05-05 16:47 48.20842 12.80818 19090 ft 397 kts 103°
2026-05-05 16:47 48.20239 12.84871 19271 ft 406 kts 106°
2026-05-05 16:48 48.19484 12.88980 19451 ft 415 kts 107°
2026-05-05 16:48 48.18677 12.93261 19630 ft 425 kts 108°
2026-05-05 16:48 48.17874 12.97500 19916 ft 431 kts 108°
2026-05-05 16:48 48.17045 13.01878 20353 ft 433 kts 107°
2026-05-05 16:49 48.16216 13.06247 20799 ft 435 kts 108°
2026-05-05 16:49 48.15398 13.10556 21202 ft 438 kts 108°
2026-05-05 16:49 48.14558 13.14972 21603 ft 441 kts 108°
2026-05-05 16:49 48.13718 13.19372 22001 ft 443 kts 108°
2026-05-05 16:50 48.12865 13.23838 22398 ft 446 kts 108°
2026-05-05 16:50 48.12006 13.28313 22780 ft 448 kts 108°
2026-05-05 16:50 48.11153 13.32754 23150 ft 451 kts 108°
2026-05-05 16:50 48.10272 13.37333 23517 ft 454 kts 108°
2026-05-05 16:51 48.09398 13.41856 23871 ft 456 kts 108°
2026-05-05 16:51 48.08525 13.46375 24220 ft 459 kts 108°
2026-05-05 16:51 48.07634 13.50967 24575 ft 461 kts 108°
2026-05-05 16:51 48.06733 13.55606 24924 ft 464 kts 108°
2026-05-05 16:52 48.05835 13.60216 25266 ft 466 kts 108°
2026-05-05 16:52 48.04935 13.64829 25587 ft 468 kts 108°
2026-05-05 16:52 48.04022 13.69493 25903 ft 471 kts 108°
2026-05-05 16:52 48.03102 13.74184 26211 ft 473 kts 109°
2026-05-05 16:53 48.02168 13.78936 26518 ft 475 kts 109°
2026-05-05 16:53 48.01235 13.83666 26828 ft 477 kts 109°
2026-05-05 16:53 48.00297 13.88408 27120 ft 480 kts 109°
2026-05-05 16:53 47.99355 13.93164 27399 ft 482 kts 109°
2026-05-05 16:54 47.98393 13.98001 27683 ft 484 kts 109°
2026-05-05 16:54 47.97435 14.02809 27983 ft 486 kts 109°
2026-05-05 16:54 47.96478 14.07607 28376 ft 486 kts 109°
2026-05-05 16:54 47.95511 14.12443 28823 ft 484 kts 109°
2026-05-05 16:55 47.94558 14.17195 29257 ft 482 kts 109°
2026-05-05 16:55 47.93601 14.21958 29660 ft 481 kts 109°
2026-05-05 16:55 47.92639 14.26724 30046 ft 480 kts 109°
2026-05-05 16:55 47.91683 14.31454 30415 ft 479 kts 109°
2026-05-05 16:56 47.90723 14.36191 30763 ft 479 kts 109°
2026-05-05 16:56 47.89761 14.40922 31084 ft 478 kts 108°
2026-05-05 16:56 47.88794 14.45668 31399 ft 478 kts 108°
2026-05-05 16:56 47.87835 14.50366 31699 ft 478 kts 108°
2026-05-05 16:57 47.86873 14.55070 32005 ft 478 kts 108°
2026-05-05 16:57 47.85905 14.59799 32304 ft 478 kts 108°
2026-05-05 16:57 47.84932 14.64532 32581 ft 478 kts 108°
2026-05-05 16:57 47.83957 14.69264 32850 ft 478 kts 109°
2026-05-05 16:58 47.82985 14.73973 33096 ft 478 kts 109°
2026-05-05 16:58 47.82019 14.78641 33314 ft 479 kts 108°
2026-05-05 16:58 47.81034 14.83391 33493 ft 481 kts 108°
2026-05-05 16:58 47.80042 14.88164 33675 ft 482 kts 108°
2026-05-05 16:59 47.79057 14.92886 33846 ft 484 kts 108°
2026-05-05 16:59 47.78059 14.97667 34033 ft 484 kts 108°
2026-05-05 16:59 47.77060 15.02439 34205 ft 485 kts 108°
2026-05-05 16:59 47.76070 15.07160 34386 ft 486 kts 108°
2026-05-05 17:00 47.75058 15.11974 34573 ft 486 kts 108°
2026-05-05 17:00 47.74055 15.16733 34729 ft 487 kts 108°
2026-05-05 17:00 47.72030 15.26298 34826 ft 489 kts 108°
2026-05-05 17:01 47.69984 15.35919 34831 ft 489 kts 108°
2026-05-05 17:01 47.67950 15.45445 34824 ft 489 kts 108°
2026-05-05 17:02 47.65890 15.55048 34822 ft 489 kts 108°
2026-05-05 17:02 47.63829 15.64609 34823 ft 489 kts 108°
2026-05-05 17:03 47.61753 15.74191 34817 ft 489 kts 109°
2026-05-05 17:03 47.59670 15.83763 34802 ft 488 kts 109°
2026-05-05 17:04 47.57601 15.93229 34812 ft 488 kts 109°
2026-05-05 17:04 47.55502 16.02795 34827 ft 488 kts 109°
2026-05-05 17:05 47.53417 16.12242 34817 ft 488 kts 109°
2026-05-05 17:05 47.51298 16.21801 34817 ft 488 kts 109°
2026-05-05 17:06 47.49191 16.31270 34817 ft 489 kts 109°
2026-05-05 17:06 47.47070 16.40759 34814 ft 489 kts 109°
2026-05-05 17:07 47.44931 16.50291 34818 ft 490 kts 109°
2026-05-05 17:07 47.42784 16.59807 34826 ft 490 kts 109°
2026-05-05 17:08 47.40587 16.69246 34822 ft 489 kts 110°
2026-05-05 17:08 47.38357 16.78687 34830 ft 489 kts 110°
2026-05-05 17:09 47.36118 16.88142 34839 ft 489 kts 110°
2026-05-05 17:09 47.33875 16.97589 34840 ft 489 kts 110°
2026-05-05 17:10 47.31632 17.07000 34844 ft 489 kts 110°
2026-05-05 17:10 47.29376 17.16421 34854 ft 490 kts 110°
2026-05-05 17:11 47.27110 17.25849 34866 ft 491 kts 110°
2026-05-05 17:11 47.24840 17.35261 34880 ft 491 kts 110°
2026-05-05 17:12 47.22554 17.44698 34886 ft 490 kts 110°
2026-05-05 17:12 47.20253 17.54148 34889 ft 490 kts 110°
2026-05-05 17:13 47.17960 17.63528 34894 ft 490 kts 110°
2026-05-05 17:13 47.15645 17.72960 34898 ft 491 kts 111°
2026-05-05 17:14 47.13340 17.82308 34901 ft 491 kts 111°
2026-05-05 17:14 47.11007 17.91737 34904 ft 491 kts 111°
2026-05-05 17:15 47.08668 18.01152 34904 ft 492 kts 111°
2026-05-05 17:15 47.06318 18.10562 34906 ft 492 kts 111°
2026-05-05 17:16 47.03972 18.19917 34911 ft 491 kts 111°
2026-05-05 17:16 47.01615 18.29280 34912 ft 491 kts 110°
2026-05-05 17:17 46.99246 18.38656 34911 ft 492 kts 110°
2026-05-05 17:17 46.96873 18.48010 34906 ft 491 kts 110°
2026-05-05 17:18 46.94494 18.57348 34906 ft 491 kts 110°
2026-05-05 17:18 46.92097 18.66718 34906 ft 491 kts 111°
2026-05-05 17:19 46.89701 18.76049 34910 ft 491 kts 111°
2026-05-05 17:19 46.87301 18.85354 34908 ft 491 kts 111°
2026-05-05 17:20 46.84884 18.94688 34910 ft 491 kts 111°
2026-05-05 17:20 46.82465 19.03992 34904 ft 491 kts 111°
2026-05-05 17:21 46.80038 19.13290 34906 ft 491 kts 111°
2026-05-05 17:22 46.76402 19.27152 34905 ft 491 kts 111°
2026-05-05 17:22 46.73953 19.36443 34904 ft 491 kts 111°
2026-05-05 17:23 46.71517 19.45642 34905 ft 491 kts 110°
2026-05-05 17:23 46.69049 19.54926 34907 ft 491 kts 110°
2026-05-05 17:24 46.66595 19.64127 34905 ft 491 kts 110°
2026-05-05 17:24 46.64119 19.73375 34906 ft 491 kts 111°
2026-05-05 17:25 46.61630 19.82634 34909 ft 491 kts 111°
2026-05-05 17:25 46.59146 19.91831 34910 ft 492 kts 111°
2026-05-05 17:26 46.56641 20.01074 34911 ft 492 kts 111°
2026-05-05 17:26 46.54125 20.10322 34911 ft 493 kts 111°
2026-05-05 17:27 46.51605 20.19550 34917 ft 492 kts 111°
2026-05-05 17:27 46.49091 20.28723 34919 ft 491 kts 111°
2026-05-05 17:28 46.46566 20.37897 34919 ft 491 kts 111°
2026-05-05 17:28 46.44036 20.47057 34922 ft 492 kts 111°
2026-05-05 17:29 46.41501 20.56198 34922 ft 492 kts 111°
2026-05-05 17:29 46.38955 20.65342 34927 ft 492 kts 112°
2026-05-05 17:30 46.36393 20.74515 34928 ft 492 kts 112°
2026-05-05 17:30 46.33825 20.83676 34927 ft 492 kts 112°
2026-05-05 17:31 46.31260 20.92792 34934 ft 492 kts 112°
2026-05-05 17:31 46.28679 21.01929 34934 ft 493 kts 111°
2026-05-05 17:32 46.26079 21.11088 34927 ft 494 kts 112°
2026-05-05 17:32 46.23441 21.20214 34936 ft 494 kts 112°
2026-05-05 17:33 46.20789 21.29320 34936 ft 493 kts 112°
2026-05-05 17:33 46.18152 21.38356 34939 ft 493 kts 112°
2026-05-05 17:34 46.15499 21.47420 34940 ft 492 kts 112°
2026-05-05 17:34 46.12842 21.56467 34934 ft 492 kts 112°
2026-05-05 17:35 46.10171 21.65530 34938 ft 491 kts 112°
2026-05-05 17:35 46.07513 21.74519 34937 ft 491 kts 112°
2026-05-05 17:36 46.04841 21.83528 34944 ft 491 kts 112°
2026-05-05 17:36 46.02157 21.92539 34939 ft 491 kts 112°
2026-05-05 17:37 45.99469 22.01526 34952 ft 491 kts 112°
2026-05-05 17:37 45.96778 22.10493 34954 ft 491 kts 112°
2026-05-05 17:38 45.94070 22.19478 34955 ft 491 kts 112°
2026-05-05 17:38 45.91367 22.28427 34959 ft 491 kts 112°
2026-05-05 17:39 45.88636 22.37433 34975 ft 491 kts 112°
2026-05-05 17:39 45.85920 22.46358 35000 ft 491 kts 112°
2026-05-05 17:40 45.83200 22.55260 35022 ft 491 kts 112°
2026-05-05 17:40 45.80460 22.64202 35024 ft 491 kts 111°
2026-05-05 17:41 45.77719 22.73115 35024 ft 491 kts 112°
2026-05-05 17:41 45.74972 22.82016 35014 ft 491 kts 112°
2026-05-05 17:42 45.72203 22.90950 35011 ft 491 kts 112°
2026-05-05 17:42 45.69437 22.99846 35000 ft 491 kts 112°
2026-05-05 17:43 45.66675 23.08705 35009 ft 491 kts 112°
2026-05-05 17:43 45.63895 23.17588 35017 ft 491 kts 112°
2026-05-05 17:44 45.61105 23.26474 35040 ft 491 kts 112°
2026-05-05 17:44 45.58320 23.35311 35059 ft 490 kts 112°
2026-05-05 17:45 45.55521 23.44159 35072 ft 490 kts 112°
2026-05-05 17:45 45.52715 23.53002 35072 ft 491 kts 112°
2026-05-05 17:46 45.49916 23.61792 35081 ft 491 kts 111°
2026-05-05 17:46 45.47095 23.70623 35094 ft 492 kts 112°
2026-05-05 17:47 45.44250 23.79496 35095 ft 491 kts 112°
2026-05-05 17:47 45.41425 23.88276 35092 ft 491 kts 112°
2026-05-05 17:48 45.38573 23.97112 35089 ft 491 kts 112°
2026-05-05 17:48 45.35733 24.05881 35082 ft 491 kts 112°
2026-05-05 17:49 45.32877 24.14668 35071 ft 491 kts 112°
2026-05-05 17:49 45.30032 24.23399 35063 ft 491 kts 112°
2026-05-05 17:50 45.27155 24.32195 35051 ft 491 kts 112°
2026-05-05 17:50 45.24293 24.40911 35043 ft 491 kts 112°
2026-05-05 17:51 45.21410 24.49666 35037 ft 490 kts 112°
2026-05-05 17:51 45.18531 24.58378 35036 ft 489 kts 112°
2026-05-05 17:52 45.15651 24.67070 35036 ft 489 kts 112°
2026-05-05 17:52 45.12752 24.75792 35033 ft 489 kts 112°
2026-05-05 17:53 45.09868 24.84443 35037 ft 490 kts 113°
2026-05-05 17:53 45.06952 24.93172 35016 ft 489 kts 112°
2026-05-05 17:54 45.04096 25.01840 35027 ft 489 kts 112°
2026-05-05 17:54 45.01230 25.10527 35027 ft 489 kts 112°
2026-05-05 17:55 44.98362 25.19187 35029 ft 488 kts 112°
2026-05-05 17:55 44.95494 25.27822 35028 ft 487 kts 112°
2026-05-05 17:56 44.92622 25.36441 35028 ft 487 kts 112°
2026-05-05 17:56 44.89742 25.45054 35024 ft 487 kts 112°
2026-05-05 17:57 44.86867 25.53619 35023 ft 487 kts 111°
2026-05-05 17:57 44.83958 25.62261 35019 ft 487 kts 111°
2026-05-05 17:58 44.81065 25.70829 35022 ft 486 kts 112°
2026-05-05 17:58 44.78180 25.79340 35021 ft 485 kts 112°
2026-05-05 17:59 44.75281 25.87866 35018 ft 485 kts 112°
2026-05-05 17:59 44.72376 25.96384 35011 ft 485 kts 112°
2026-05-05 18:00 44.69452 26.04939 35018 ft 485 kts 112°
2026-05-05 18:00 44.66532 26.13451 34996 ft 485 kts 112°
2026-05-05 18:01 44.63617 26.21921 34998 ft 484 kts 112°
2026-05-05 18:01 44.60690 26.30395 35012 ft 483 kts 112°
2026-05-05 18:02 44.57765 26.38830 35015 ft 483 kts 112°
2026-05-05 18:02 44.54828 26.47284 35017 ft 482 kts 113°
2026-05-05 18:03 44.51891 26.55712 35020 ft 483 kts 113°
2026-05-05 18:03 44.48968 26.64072 35028 ft 482 kts 113°
2026-05-05 18:04 44.46014 26.72495 35030 ft 482 kts 114°
2026-05-05 18:04 44.43069 26.80864 35034 ft 481 kts 114°
2026-05-05 18:05 44.40107 26.89254 35034 ft 481 kts 114°
2026-05-05 18:05 44.37171 26.97551 35036 ft 480 kts 114°
2026-05-05 18:06 44.34202 27.05909 35047 ft 480 kts 115°
2026-05-05 18:06 44.31239 27.14221 35034 ft 479 kts 114°
2026-05-05 18:07 44.28275 27.22512 35044 ft 479 kts 114°
2026-05-05 18:07 44.25315 27.30773 35053 ft 478 kts 114°
2026-05-05 18:08 44.22349 27.39027 35049 ft 479 kts 114°
2026-05-05 18:08 44.19369 27.47295 35056 ft 479 kts 114°
2026-05-05 18:09 44.16385 27.55548 35053 ft 478 kts 114°
2026-05-05 18:09 44.13403 27.63768 35061 ft 479 kts 114°
2026-05-05 18:10 44.10398 27.72026 35063 ft 479 kts 115°
2026-05-05 18:10 44.07371 27.80321 35069 ft 479 kts 115°
2026-05-05 18:11 44.04376 27.88505 35067 ft 478 kts 115°
2026-05-05 18:11 44.01365 27.96709 35076 ft 478 kts 115°
2026-05-05 18:12 43.98343 28.04920 35079 ft 478 kts 115°
2026-05-05 18:12 43.95332 28.13073 35078 ft 478 kts 115°
2026-05-05 18:13 43.92288 28.21293 35079 ft 479 kts 115°
2026-05-05 18:13 43.89251 28.29470 35077 ft 479 kts 115°
2026-05-05 18:14 43.86206 28.37645 35070 ft 478 kts 115°
2026-05-05 18:14 43.83170 28.45778 35068 ft 478 kts 115°
2026-05-05 18:15 43.80129 28.53899 35064 ft 478 kts 115°
2026-05-05 18:15 43.77073 28.62034 35062 ft 478 kts 115°
2026-05-05 18:16 43.74008 28.70170 35058 ft 478 kts 115°
2026-05-05 18:16 43.70897 28.78262 35062 ft 479 kts 117°
2026-05-05 18:17 43.67276 28.86005 35060 ft 480 kts 123°
2026-05-05 18:17 43.63374 28.93439 35062 ft 480 kts 123°
2026-05-05 18:18 43.59453 29.00906 35065 ft 481 kts 123°
2026-05-05 18:18 43.55559 29.08305 35058 ft 482 kts 123°
2026-05-05 18:19 43.51624 29.15771 35056 ft 482 kts 123°
2026-05-05 18:19 43.47707 29.23186 35059 ft 481 kts 123°
2026-05-05 18:20 43.43766 29.30624 35066 ft 481 kts 123°
2026-05-05 18:20 43.39843 29.38014 35066 ft 481 kts 123°
2026-05-05 18:21 43.35897 29.45426 35067 ft 482 kts 123°
2026-05-05 18:21 43.31944 29.52835 35069 ft 482 kts 123°
2026-05-05 18:22 43.27990 29.60225 35068 ft 482 kts 122°
2026-05-05 18:22 43.24021 29.67624 35069 ft 482 kts 123°
2026-05-05 18:23 43.20062 29.74989 35067 ft 482 kts 123°
2026-05-05 18:23 43.16105 29.82329 35068 ft 482 kts 123°
2026-05-05 18:24 43.12114 29.89715 35066 ft 482 kts 123°
2026-05-05 18:24 43.08153 29.97029 35067 ft 482 kts 123°
2026-05-05 18:25 43.04174 30.04359 35067 ft 482 kts 123°
2026-05-05 18:25 43.00186 30.11683 35060 ft 482 kts 123°
2026-05-05 18:26 42.96184 30.19020 35058 ft 483 kts 123°
2026-05-05 18:26 42.92186 30.26332 35053 ft 483 kts 123°
2026-05-05 18:27 42.88176 30.33645 35053 ft 483 kts 122°
2026-05-05 18:27 42.84159 30.40962 35049 ft 483 kts 123°
2026-05-05 18:28 42.78283 30.52020 35051 ft 480 kts 117°
2026-05-05 18:28 42.75235 30.60041 35048 ft 476 kts 108°
2026-05-05 18:29 42.73157 30.68521 35046 ft 472 kts 99°
2026-05-05 18:29 42.72015 30.77247 35054 ft 469 kts 94°
2026-05-05 18:30 42.71146 30.85968 35047 ft 468 kts 94°
2026-05-05 18:30 42.70266 30.94691 35048 ft 468 kts 94°
2026-05-05 18:31 42.69367 31.03445 35053 ft 468 kts 94°
2026-05-05 18:31 42.68460 31.12176 35041 ft 469 kts 94°
2026-05-05 18:32 42.67547 31.20879 35042 ft 469 kts 94°
2026-05-05 18:32 42.66620 31.29639 35041 ft 469 kts 94°
2026-05-05 18:33 42.65688 31.38372 35041 ft 469 kts 94°
2026-05-05 18:33 42.64753 31.47073 35046 ft 469 kts 94°
2026-05-05 18:34 42.63806 31.55827 35049 ft 469 kts 94°
2026-05-05 18:34 42.62855 31.64552 35046 ft 468 kts 93°
2026-05-05 18:35 42.61898 31.73274 35045 ft 468 kts 94°
2026-05-05 18:35 42.60941 31.81961 35044 ft 469 kts 94°
2026-05-05 18:36 42.59969 31.90716 35044 ft 468 kts 94°
2026-05-05 18:36 42.58995 31.99406 35042 ft 469 kts 94°
2026-05-05 18:37 42.58026 32.08109 35035 ft 469 kts 94°
2026-05-05 18:37 42.57029 32.16833 35025 ft 470 kts 94°
2026-05-05 18:38 42.56022 32.25585 35026 ft 470 kts 94°
2026-05-05 18:38 42.55020 32.34259 35042 ft 470 kts 94°
2026-05-05 18:39 42.54007 32.42977 35126 ft 469 kts 94°
2026-05-05 18:39 42.52982 32.51711 35065 ft 468 kts 94°
2026-05-05 18:40 42.51962 32.60374 35059 ft 468 kts 94°
2026-05-05 18:40 42.50925 32.69111 35046 ft 469 kts 94°
2026-05-05 18:41 42.49883 32.77832 35043 ft 470 kts 94°
2026-05-05 18:41 42.48839 32.86522 35038 ft 470 kts 94°
2026-05-05 18:42 42.47783 32.95244 35033 ft 469 kts 94°
2026-05-05 18:42 42.46727 33.03934 35041 ft 469 kts 94°
2026-05-05 18:43 42.45661 33.12621 35055 ft 469 kts 94°
2026-05-05 18:43 42.44582 33.21341 35024 ft 470 kts 95°
2026-05-05 18:44 42.43504 33.29996 35012 ft 470 kts 95°
2026-05-05 18:44 42.42418 33.38691 35026 ft 471 kts 95°
2026-05-05 18:45 42.41314 33.47427 35036 ft 471 kts 95°
2026-05-05 18:45 42.40217 33.56074 35022 ft 470 kts 95°
2026-05-05 18:46 42.39104 33.64799 35055 ft 470 kts 95°
2026-05-05 18:46 42.37988 33.73495 35040 ft 471 kts 96°
2026-05-05 18:47 42.36873 33.82177 35032 ft 471 kts 96°
2026-05-05 18:47 42.35742 33.90876 35052 ft 472 kts 96°
2026-05-05 18:48 42.34607 33.99571 35038 ft 472 kts 97°
2026-05-05 18:48 42.33463 34.08295 35048 ft 472 kts 97°
2026-05-05 18:49 42.32313 34.17020 35048 ft 472 kts 97°
2026-05-05 18:49 42.31168 34.25678 35054 ft 472 kts 97°
2026-05-05 18:50 42.30008 34.34379 35037 ft 472 kts 97°
2026-05-05 18:50 42.28842 34.43045 35046 ft 472 kts 97°
2026-05-05 18:51 42.27663 34.51741 35045 ft 472 kts 97°
2026-05-05 18:51 42.26480 34.60433 35059 ft 473 kts 97°
2026-05-05 18:52 42.25285 34.69178 35053 ft 473 kts 98°
2026-05-05 18:52 42.24095 34.77836 35048 ft 473 kts 98°
2026-05-05 18:53 42.22884 34.86544 35046 ft 473 kts 98°
2026-05-05 18:53 42.21666 34.95248 35048 ft 474 kts 98°
2026-05-05 18:54 42.20443 35.03949 35056 ft 474 kts 99°
2026-05-05 18:54 42.19216 35.12631 35057 ft 474 kts 99°
2026-05-05 18:55 42.17978 35.21354 35047 ft 474 kts 99°
2026-05-05 18:55 42.16742 35.30019 35051 ft 474 kts 99°
2026-05-05 18:56 42.15491 35.38731 35065 ft 474 kts 99°
2026-05-05 18:56 42.14240 35.47387 35048 ft 474 kts 99°
2026-05-05 18:57 42.12971 35.56109 35058 ft 475 kts 99°
2026-05-05 18:57 42.11707 35.64772 35042 ft 475 kts 99°
2026-05-05 18:58 42.10432 35.73461 35054 ft 475 kts 100°
2026-05-05 18:58 42.09149 35.82167 35051 ft 475 kts 100°
2026-05-05 18:59 42.07863 35.90841 35052 ft 475 kts 100°
2026-05-05 18:59 42.06570 35.99526 35047 ft 476 kts 100°
2026-05-05 19:00 42.05259 36.08277 35059 ft 477 kts 100°
2026-05-05 19:00 42.03955 36.16935 35063 ft 476 kts 101°
2026-05-05 19:01 42.02631 36.25668 35062 ft 476 kts 101°
2026-05-05 19:01 42.01309 36.34352 35063 ft 476 kts 101°
2026-05-05 19:02 41.99987 36.42987 35064 ft 475 kts 101°
2026-05-05 19:02 41.98653 36.51662 35062 ft 474 kts 101°
2026-05-05 19:03 41.97319 36.60297 35061 ft 475 kts 101°
2026-05-05 19:03 41.95974 36.68941 35063 ft 475 kts 102°
2026-05-05 19:04 41.94622 36.77597 35067 ft 475 kts 102°
2026-05-05 19:04 41.93266 36.86232 35061 ft 475 kts 102°
2026-05-05 19:05 41.91901 36.94873 35068 ft 476 kts 102°
2026-05-05 19:05 41.90747 37.03608 35064 ft 476 kts 97°
2026-05-05 19:06 41.90240 37.12465 35063 ft 477 kts 91°
2026-05-05 19:06 41.90107 37.21285 35061 ft 477 kts 91°
2026-05-05 19:07 41.89978 37.30168 35062 ft 476 kts 91°
2026-05-05 19:07 41.89841 37.38984 35063 ft 475 kts 91°
2026-05-05 19:08 41.89695 37.47815 35061 ft 476 kts 91°
2026-05-05 19:08 41.89542 37.56684 35059 ft 476 kts 91°
2026-05-05 19:09 41.89380 37.65575 35064 ft 476 kts 92°
2026-05-05 19:09 41.89212 37.74383 35059 ft 476 kts 92°
2026-05-05 19:10 41.89037 37.83274 35061 ft 477 kts 92°
2026-05-05 19:10 41.88856 37.92139 35064 ft 477 kts 92°
2026-05-05 19:11 41.88668 38.01002 35059 ft 477 kts 92°
2026-05-05 19:11 41.88472 38.09882 35054 ft 478 kts 93°
2026-05-05 19:12 41.88271 38.18739 35052 ft 478 kts 93°
2026-05-05 19:12 41.88060 38.27625 35045 ft 478 kts 93°
2026-05-05 19:13 41.87844 38.36491 35044 ft 478 kts 93°
2026-05-05 19:13 41.87621 38.45353 35045 ft 477 kts 93°
2026-05-05 19:14 41.87392 38.54207 35047 ft 477 kts 93°
2026-05-05 19:14 41.87157 38.63061 35049 ft 477 kts 93°
2026-05-05 19:15 41.86913 38.71944 35043 ft 478 kts 94°
2026-05-05 19:15 41.86663 38.80796 35047 ft 478 kts 94°
2026-05-05 19:16 41.86407 38.89650 35048 ft 477 kts 94°
2026-05-05 19:16 41.86143 38.98557 35047 ft 477 kts 94°
2026-05-05 19:17 41.85873 39.07417 35045 ft 478 kts 94°
2026-05-05 19:17 41.85596 39.16237 35050 ft 478 kts 94°
2026-05-05 19:18 41.85313 39.25105 35050 ft 478 kts 94°
2026-05-05 19:18 41.85022 39.34018 35046 ft 477 kts 94°
2026-05-05 19:19 41.84729 39.42818 35049 ft 477 kts 94°
2026-05-05 19:19 41.84423 39.51716 35045 ft 477 kts 95°
2026-05-05 19:20 41.84109 39.60548 35049 ft 477 kts 95°
2026-05-05 19:20 41.83789 39.69450 35047 ft 478 kts 95°
2026-05-05 19:21 41.83465 39.78281 35050 ft 478 kts 95°
2026-05-05 19:21 41.83135 39.87135 35048 ft 478 kts 95°
2026-05-05 19:22 41.82798 39.96019 35045 ft 477 kts 95°
2026-05-05 19:22 41.82455 40.04859 35047 ft 477 kts 95°
2026-05-05 19:23 41.82105 40.13671 35045 ft 476 kts 95°
2026-05-05 19:23 41.81742 40.22544 35046 ft 477 kts 95°
2026-05-05 19:24 41.81377 40.31341 35049 ft 478 kts 95°
2026-05-05 19:24 41.81001 40.40245 35041 ft 478 kts 95°
2026-05-05 19:25 41.80625 40.49047 35050 ft 478 kts 95°
2026-05-05 19:25 41.80239 40.57919 35049 ft 477 kts 95°
2026-05-05 19:26 41.79844 40.66780 35048 ft 477 kts 96°
2026-05-05 19:26 41.79416 40.75610 35044 ft 477 kts 97°
2026-05-05 19:27 41.78976 40.84458 35045 ft 477 kts 96°
2026-05-05 19:27 41.78536 40.93244 35046 ft 477 kts 96°
2026-05-05 19:28 41.78086 41.02123 35043 ft 477 kts 96°
2026-05-05 19:28 41.77631 41.10971 35042 ft 477 kts 96°
2026-05-05 19:29 41.77171 41.19802 35049 ft 477 kts 97°
2026-05-05 19:29 41.76704 41.28639 35041 ft 477 kts 97°
2026-05-05 19:30 41.76230 41.37452 35047 ft 477 kts 97°
2026-05-05 19:30 41.75748 41.46301 35048 ft 478 kts 97°
2026-05-05 19:31 41.75261 41.55145 35045 ft 478 kts 97°
2026-05-05 19:31 41.74767 41.63983 35045 ft 478 kts 97°
2026-05-05 19:32 41.74268 41.72783 35041 ft 478 kts 97°
2026-05-05 19:32 41.73760 41.81630 35036 ft 477 kts 98°
2026-05-05 19:33 41.73248 41.90446 35037 ft 477 kts 98°
2026-05-05 19:33 41.72725 41.99312 35031 ft 477 kts 98°
2026-05-05 19:34 41.72197 42.08123 35025 ft 478 kts 98°
2026-05-05 19:35 41.71386 42.21347 35029 ft 479 kts 98°
2026-05-05 19:35 41.70834 42.30236 35021 ft 479 kts 98°
2026-05-05 19:36 41.70280 42.39071 35024 ft 479 kts 98°
2026-05-05 19:36 41.69718 42.47925 35024 ft 480 kts 98°
2026-05-05 19:37 41.69148 42.56799 35025 ft 479 kts 98°
2026-05-05 19:37 41.68578 42.65598 35027 ft 480 kts 99°
2026-05-05 19:38 41.67996 42.74462 35024 ft 481 kts 99°
2026-05-05 19:38 41.67403 42.83377 35032 ft 481 kts 99°
2026-05-05 19:39 41.66798 42.92271 35041 ft 481 kts 99°
2026-05-05 19:39 41.66191 43.01105 35031 ft 482 kts 99°
2026-05-05 19:40 41.65575 43.10004 35027 ft 481 kts 99°
2026-05-05 19:40 41.64953 43.18883 35025 ft 483 kts 99°
2026-05-05 19:41 41.64322 43.27785 35025 ft 483 kts 99°
2026-05-05 19:41 41.63686 43.36688 35023 ft 484 kts 99°
2026-05-05 19:42 41.63041 43.45605 35021 ft 484 kts 99°
2026-05-05 19:42 41.62383 43.54594 35015 ft 486 kts 99°
2026-05-05 19:43 41.61723 43.63531 35009 ft 487 kts 99°
2026-05-05 19:43 41.61059 43.72461 35012 ft 487 kts 99°
2026-05-05 19:44 41.60384 43.81463 35007 ft 488 kts 100°
2026-05-05 19:44 41.59706 43.90428 35013 ft 488 kts 100°
2026-05-05 19:45 41.59016 43.99453 35005 ft 489 kts 100°
2026-05-05 19:45 41.58322 44.08445 34998 ft 489 kts 100°
2026-05-05 19:46 41.57570 44.17413 35002 ft 489 kts 103°
2026-05-05 19:46 41.56247 44.26252 35007 ft 484 kts 109°
2026-05-05 19:47 41.54295 44.34760 34996 ft 482 kts 112°
2026-05-05 19:47 41.52174 44.43282 35002 ft 483 kts 112°
2026-05-05 19:48 41.50075 44.51718 35000 ft 484 kts 112°
2026-05-05 19:48 41.47954 44.60223 35000 ft 485 kts 113°
2026-05-05 19:49 41.45828 44.68726 35001 ft 485 kts 114°
2026-05-05 19:49 41.43694 44.77235 34987 ft 484 kts 114°
2026-05-05 19:50 41.41571 44.85668 34990 ft 485 kts 114°
2026-05-05 19:50 41.39417 44.94197 34979 ft 485 kts 114°
2026-05-05 19:51 41.37276 45.02660 34992 ft 486 kts 114°
2026-05-05 19:51 41.35107 45.11164 34983 ft 486 kts 114°
2026-05-05 19:52 41.32935 45.19628 34973 ft 487 kts 114°
2026-05-05 19:52 41.30744 45.28154 34967 ft 488 kts 114°
2026-05-05 19:53 41.28550 45.36682 34959 ft 489 kts 114°
2026-05-05 19:53 41.26352 45.45185 34965 ft 490 kts 114°
2026-05-05 19:54 41.24150 45.53687 34954 ft 489 kts 114°
2026-05-05 19:54 41.21927 45.62231 34960 ft 490 kts 114°
2026-05-05 19:55 41.19702 45.70714 34948 ft 490 kts 115°
2026-05-05 19:55 41.17451 45.79245 34970 ft 491 kts 115°
2026-05-05 19:56 41.15189 45.87797 34941 ft 492 kts 115°
2026-05-05 19:56 41.12933 45.96308 34948 ft 492 kts 115°
2026-05-05 19:57 41.10659 46.04857 34951 ft 494 kts 115°
2026-05-05 19:57 41.08382 46.13403 34935 ft 494 kts 115°
2026-05-05 19:58 41.06093 46.21968 34941 ft 493 kts 115°
2026-05-05 19:58 41.03806 46.30477 34939 ft 494 kts 116°
2026-05-05 19:59 41.01520 46.39010 34944 ft 494 kts 115°
2026-05-05 19:59 40.99236 46.47546 34942 ft 494 kts 115°
2026-05-05 20:00 40.96933 46.56132 34943 ft 494 kts 115°
2026-05-05 20:00 40.94633 46.64668 34943 ft 495 kts 116°
2026-05-05 20:01 40.92340 46.73159 34940 ft 493 kts 116°
2026-05-05 20:01 40.90028 46.81682 34932 ft 494 kts 116°
2026-05-05 20:02 40.87706 46.90173 34931 ft 494 kts 116°
2026-05-05 20:02 40.85364 46.98702 34941 ft 494 kts 116°
2026-05-05 20:03 40.83024 47.07209 34941 ft 495 kts 116°
2026-05-05 20:03 40.80684 47.15682 34933 ft 496 kts 117°
2026-05-05 20:04 40.78297 47.24236 34939 ft 495 kts 117°
2026-05-05 20:04 40.75935 47.32674 34939 ft 495 kts 117°
2026-05-05 20:05 40.73543 47.41191 34952 ft 496 kts 117°
2026-05-05 20:05 40.71151 47.49697 34957 ft 496 kts 117°
2026-05-05 20:06 40.68765 47.58165 34964 ft 496 kts 117°
2026-05-05 20:06 40.66355 47.66701 34970 ft 496 kts 117°
2026-05-05 20:07 40.63958 47.75171 34964 ft 496 kts 118°
2026-05-05 20:07 40.61574 47.83688 34969 ft 500 kts 116°
2026-05-05 20:08 40.59750 47.92514 34973 ft 507 kts 108°
2026-05-05 20:08 40.58757 48.01753 34973 ft 516 kts 100°
2026-05-05 20:09 40.58656 48.11253 34978 ft 522 kts 93°
2026-05-05 20:09 40.59005 48.20770 34979 ft 522 kts 93°
2026-05-05 20:10 40.59272 48.30203 34980 ft 522 kts 94°
2026-05-05 20:10 40.59392 48.34964 34850 ft 521 kts 94°
2026-05-05 20:10 40.59509 48.39716 34907 ft 522 kts 94°
2026-05-05 20:10 40.59625 48.44478 35070 ft 522 kts 94°
2026-05-05 20:11 40.59740 48.49239 35077 ft 522 kts 94°
2026-05-05 20:11 40.59853 48.53984 34899 ft 522 kts 94°
2026-05-05 20:11 40.59965 48.58731 34936 ft 521 kts 94°
2026-05-05 20:12 40.60183 48.68207 34968 ft 521 kts 94°
2026-05-05 20:12 40.60393 48.77741 34978 ft 521 kts 94°
2026-05-05 20:13 40.60595 48.87233 34986 ft 521 kts 95°
2026-05-05 20:13 40.60791 48.96730 34990 ft 520 kts 95°
2026-05-05 20:14 40.60980 49.06205 34997 ft 520 kts 94°
2026-05-05 20:14 40.61158 49.15664 34988 ft 521 kts 95°
2026-05-05 20:15 40.61539 49.25221 34984 ft 524 kts 91°
2026-05-05 20:15 40.62096 49.34752 34984 ft 524 kts 91°
2026-05-05 20:16 40.62649 49.44275 34996 ft 525 kts 91°
2026-05-05 20:16 40.63191 49.53812 34994 ft 524 kts 91°
2026-05-05 20:17 40.63719 49.63325 34987 ft 525 kts 91°
2026-05-05 20:17 40.64239 49.72846 34987 ft 525 kts 92°
2026-05-05 20:18 40.64756 49.82449 34991 ft 525 kts 92°
2026-05-05 20:18 40.65260 49.91960 34985 ft 525 kts 92°
2026-05-05 20:19 40.65760 50.01514 34993 ft 525 kts 92°
2026-05-05 20:19 40.66252 50.11113 34990 ft 526 kts 92°
2026-05-05 20:20 40.66737 50.20674 34998 ft 525 kts 92°
2026-05-05 20:20 40.67214 50.30222 34991 ft 525 kts 92°
2026-05-05 20:21 40.67680 50.39733 34990 ft 525 kts 92°
2026-05-05 20:21 40.68137 50.49318 34984 ft 524 kts 92°
2026-05-05 20:22 40.68578 50.58804 34976 ft 524 kts 92°
2026-05-05 20:22 40.69020 50.68367 34972 ft 523 kts 93°
2026-05-05 20:23 40.69452 50.77900 34967 ft 523 kts 93°
2026-05-05 20:23 40.69877 50.87421 34959 ft 523 kts 93°
2026-05-05 20:24 40.70295 50.96981 34964 ft 523 kts 93°
2026-05-05 20:24 40.70705 51.06520 34963 ft 524 kts 93°
2026-05-05 20:25 40.71109 51.16063 34960 ft 524 kts 94°
2026-05-05 20:25 40.71503 51.25619 34963 ft 524 kts 94°
2026-05-05 20:26 40.71893 51.35172 34957 ft 523 kts 93°
2026-05-05 20:26 40.72283 51.44676 34958 ft 523 kts 92°
2026-05-05 20:27 40.73173 51.54210 34965 ft 531 kts 85°
2026-05-05 20:27 40.74698 51.63727 34955 ft 531 kts 83°
2026-05-05 20:28 40.76288 51.73187 34958 ft 531 kts 84°
2026-05-05 20:28 40.77854 51.82665 34953 ft 531 kts 84°
2026-05-05 20:29 40.79399 51.92143 34956 ft 530 kts 84°
2026-05-05 20:29 40.80934 52.01640 34958 ft 530 kts 84°
2026-05-05 20:30 40.82458 52.11100 34950 ft 528 kts 84°
2026-05-05 20:30 40.83974 52.20586 34954 ft 530 kts 84°
2026-05-05 20:31 40.85477 52.30032 34956 ft 530 kts 84°
2026-05-05 20:31 40.86977 52.39497 34949 ft 530 kts 84°
2026-05-05 20:32 40.88481 52.49028 34947 ft 530 kts 85°
2026-05-05 20:32 40.89903 52.58526 34943 ft 527 kts 87°
2026-05-05 20:33 40.90661 52.68001 34940 ft 519 kts 94°
2026-05-05 20:33 40.91056 52.77510 34938 ft 519 kts 95°
2026-05-05 20:34 40.91439 52.86949 34939 ft 517 kts 95°
2026-05-05 20:34 40.91828 52.96403 34936 ft 517 kts 95°
2026-05-05 20:35 40.92220 53.05857 34938 ft 517 kts 95°
2026-05-05 20:35 40.92597 53.15360 34932 ft 518 kts 95°
2026-05-05 20:36 40.92950 53.24842 34923 ft 520 kts 95°
2026-05-05 20:36 40.93304 53.34378 34923 ft 519 kts 95°
2026-05-05 20:37 40.93646 53.43846 34922 ft 521 kts 95°
2026-05-05 20:37 40.93987 53.53400 34920 ft 522 kts 95°
2026-05-05 20:38 40.94320 53.62980 34909 ft 522 kts 94°
2026-05-05 20:38 40.94642 53.72498 34907 ft 524 kts 95°
2026-05-05 20:39 40.94962 53.82090 34903 ft 524 kts 94°
2026-05-05 20:39 40.95277 53.91718 34905 ft 524 kts 95°
2026-05-05 20:40 40.95577 54.01371 34898 ft 527 kts 94°
2026-05-05 20:40 40.95874 54.11008 34897 ft 526 kts 94°
2026-05-05 20:41 40.96160 54.20603 34892 ft 526 kts 95°
2026-05-05 20:41 40.96441 54.30288 34901 ft 526 kts 94°
2026-05-05 20:42 40.96713 54.39905 34900 ft 525 kts 94°
2026-05-05 20:42 40.96977 54.49491 34900 ft 525 kts 94°
2026-05-05 20:43 40.97234 54.59101 34896 ft 524 kts 94°
2026-05-05 20:43 40.97481 54.68708 34891 ft 524 kts 95°
2026-05-05 20:44 40.97724 54.78277 34888 ft 523 kts 95°
2026-05-05 20:44 40.97953 54.87846 34889 ft 522 kts 94°
2026-05-05 20:45 40.98266 55.02253 34892 ft 523 kts 94°
2026-05-05 20:45 40.98462 55.11842 34895 ft 525 kts 94°
2026-05-05 20:46 40.98655 55.21467 34904 ft 526 kts 94°
2026-05-05 20:46 40.98842 55.31111 34903 ft 526 kts 94°
2026-05-05 20:47 40.99020 55.40776 34893 ft 528 kts 94°
2026-05-05 20:47 40.99191 55.50402 34895 ft 528 kts 94°
2026-05-05 20:48 40.99357 55.60091 34898 ft 529 kts 94°
2026-05-05 20:48 40.99515 55.69807 34895 ft 530 kts 94°
2026-05-05 20:49 40.99663 55.79513 34896 ft 532 kts 94°
2026-05-05 20:49 40.99815 55.89298 34888 ft 532 kts 93°
2026-05-05 20:50 40.99943 55.97382 34888 ft 532 kts 93°
2026-05-05 20:50 41.00114 56.08758 34883 ft 532 kts 93°
2026-05-05 20:51 41.00250 56.18504 34886 ft 532 kts 93°
2026-05-05 20:51 41.00376 56.28260 34893 ft 533 kts 92°
2026-05-05 20:52 41.00499 56.38039 34897 ft 533 kts 93°
2026-05-05 20:52 41.00652 56.47812 34888 ft 533 kts 90°
2026-05-05 20:53 41.01400 56.57565 34889 ft 536 kts 84°
2026-05-05 20:53 41.02570 56.67281 34895 ft 537 kts 84°
2026-05-05 20:54 41.03752 56.76973 34909 ft 537 kts 84°
2026-05-05 20:54 41.04914 56.86739 34910 ft 538 kts 84°
2026-05-05 20:55 41.06056 56.96461 34907 ft 537 kts 84°
2026-05-05 20:55 41.07185 57.06184 34903 ft 537 kts 84°
2026-05-05 20:56 41.08313 57.15971 34901 ft 537 kts 84°
2026-05-05 20:56 41.09423 57.25675 34892 ft 537 kts 84°
2026-05-05 20:57 41.10531 57.35419 34887 ft 536 kts 83°
2026-05-05 20:57 41.11633 57.45179 34880 ft 535 kts 84°
2026-05-05 20:58 41.12716 57.54879 34882 ft 535 kts 84°
2026-05-05 20:58 41.13798 57.64636 34879 ft 534 kts 84°
2026-05-05 20:59 41.14866 57.74298 34874 ft 532 kts 84°
2026-05-05 20:59 41.15923 57.83988 34880 ft 532 kts 84°
2026-05-05 21:00 41.16972 57.93672 34870 ft 531 kts 85°
2026-05-05 21:00 41.18012 58.03338 34869 ft 531 kts 84°
2026-05-05 21:01 41.19041 58.12993 34858 ft 530 kts 84°
2026-05-05 21:01 41.20056 58.22673 34857 ft 531 kts 83°
2026-05-05 21:02 41.21067 58.32308 34845 ft 530 kts 84°
2026-05-05 21:02 41.22076 58.41996 34854 ft 531 kts 84°
2026-05-05 21:03 41.23074 58.51675 34869 ft 531 kts 84°
2026-05-05 21:03 41.24063 58.61347 34875 ft 531 kts 84°
2026-05-05 21:04 41.25048 58.71045 34871 ft 531 kts 84°
2026-05-05 21:04 41.26026 58.80755 34879 ft 531 kts 84°
2026-05-05 21:05 41.26989 58.90407 34881 ft 530 kts 84°
2026-05-05 21:05 41.27945 59.00096 34882 ft 530 kts 84°
2026-05-05 21:06 41.28895 59.09793 34885 ft 530 kts 84°
2026-05-05 21:06 41.29835 59.19471 34882 ft 530 kts 84°
2026-05-05 21:07 41.30768 59.29147 34878 ft 529 kts 84°
2026-05-05 21:07 41.31692 59.38806 34879 ft 529 kts 84°
2026-05-05 21:08 41.32602 59.48420 34878 ft 529 kts 83°
2026-05-05 21:08 41.33511 59.58100 34879 ft 529 kts 83°
2026-05-05 21:09 41.34081 59.67838 34879 ft 527 kts 91°
2026-05-05 21:09 41.33849 59.77520 34883 ft 525 kts 96°
2026-05-05 21:10 41.33365 59.87141 34891 ft 526 kts 96°
2026-05-05 21:10 41.32887 59.96816 34894 ft 525 kts 96°
2026-05-05 21:11 41.32422 60.06445 34893 ft 525 kts 96°
2026-05-05 21:11 41.31952 60.16154 34894 ft 525 kts 95°
2026-05-05 21:12 41.31488 60.25774 34892 ft 525 kts 95°
2026-05-05 21:12 41.31013 60.35443 34894 ft 525 kts 95°
2026-05-05 21:13 41.30802 60.45123 34898 ft 526 kts 89°
2026-05-05 21:13 41.30983 60.49967 35051 ft 526 kts 86°
2026-05-05 21:13 41.31240 60.54812 34886 ft 526 kts 86°
2026-05-05 21:14 41.31515 60.59654 35000 ft 527 kts 86°
2026-05-05 21:14 41.31782 60.64437 34941 ft 526 kts 86°
2026-05-05 21:14 41.32315 60.74137 34910 ft 526 kts 86°
2026-05-05 21:15 41.32822 60.83789 34911 ft 526 kts 86°
2026-05-05 21:15 41.33322 60.93490 34912 ft 525 kts 86°
2026-05-05 21:16 41.33809 61.03126 34913 ft 524 kts 86°
2026-05-05 21:16 41.34287 61.12740 34914 ft 524 kts 86°
2026-05-05 21:17 41.34758 61.22396 34920 ft 523 kts 86°
2026-05-05 21:17 41.35222 61.32043 34920 ft 523 kts 86°
2026-05-05 21:18 41.35675 61.41665 34921 ft 524 kts 86°
2026-05-05 21:18 41.36120 61.51236 34923 ft 523 kts 86°
2026-05-05 21:19 41.36559 61.60889 34925 ft 522 kts 85°
2026-05-05 21:19 41.36987 61.70467 34928 ft 522 kts 86°
2026-05-05 21:20 41.37408 61.80112 34930 ft 521 kts 86°
2026-05-05 21:20 41.37820 61.89666 34932 ft 521 kts 86°
2026-05-05 21:21 41.38224 61.99257 34932 ft 520 kts 86°
2026-05-05 21:21 41.38619 62.08849 34935 ft 519 kts 86°
2026-05-05 21:22 41.39006 62.18417 34940 ft 520 kts 86°
2026-05-05 21:22 41.39386 62.28002 34940 ft 520 kts 85°
2026-05-05 21:23 41.39756 62.37556 34936 ft 520 kts 86°
2026-05-05 21:23 41.40121 62.47106 34939 ft 520 kts 85°
2026-05-05 21:24 41.40476 62.56702 34939 ft 519 kts 85°
2026-05-05 21:24 41.40825 62.66296 34937 ft 520 kts 86°
2026-05-05 21:25 41.41165 62.75859 34937 ft 520 kts 86°
2026-05-05 21:25 41.41495 62.85432 34939 ft 520 kts 86°
2026-05-05 21:26 41.41819 62.95021 34940 ft 521 kts 86°
2026-05-05 21:26 41.42135 63.04633 34940 ft 519 kts 85°
2026-05-05 21:27 41.42445 63.14214 34941 ft 519 kts 85°
2026-05-05 21:27 41.42744 63.23744 34943 ft 519 kts 85°
2026-05-05 21:28 41.43034 63.33303 34945 ft 519 kts 85°
2026-05-05 21:28 41.43319 63.42948 34952 ft 519 kts 85°
2026-05-05 21:29 41.43596 63.52490 34957 ft 519 kts 85°
2026-05-05 21:29 41.43861 63.62033 34964 ft 519 kts 85°
2026-05-05 21:30 41.44122 63.71653 34967 ft 519 kts 86°
2026-05-05 21:30 41.44376 63.81226 34973 ft 519 kts 85°
2026-05-05 21:31 41.44618 63.90768 34976 ft 519 kts 85°
2026-05-05 21:31 41.44855 64.00343 34979 ft 519 kts 85°
2026-05-05 21:32 41.45084 64.09914 34989 ft 518 kts 85°
2026-05-05 21:32 41.45305 64.19515 35002 ft 518 kts 85°
2026-05-05 21:33 41.45517 64.29066 35011 ft 518 kts 85°
2026-05-05 21:33 41.45722 64.38681 35013 ft 517 kts 85°
2026-05-05 21:34 41.45918 64.48217 35009 ft 517 kts 85°
2026-05-05 21:34 41.46106 64.57739 35008 ft 517 kts 85°
2026-05-05 21:35 41.46287 64.67332 35000 ft 517 kts 86°
2026-05-05 21:35 41.46459 64.76884 34992 ft 517 kts 86°
2026-05-05 21:36 41.46623 64.86423 34985 ft 517 kts 86°
2026-05-05 21:36 41.46778 64.95946 34974 ft 517 kts 86°
2026-05-05 21:37 41.46927 65.05508 34967 ft 517 kts 86°
2026-05-05 21:37 41.47067 65.15017 34969 ft 515 kts 86°
2026-05-05 21:38 41.47200 65.24557 34970 ft 515 kts 86°
2026-05-05 21:38 41.47324 65.34095 34868 ft 515 kts 86°
2026-05-05 21:39 41.47440 65.43645 34950 ft 516 kts 86°
2026-05-05 21:39 41.47496 65.48432 35055 ft 516 kts 86°
2026-05-05 21:39 41.47548 65.53149 35001 ft 516 kts 86°
2026-05-05 21:40 41.47649 65.62695 34975 ft 515 kts 86°
2026-05-05 21:40 41.47744 65.72244 34972 ft 516 kts 86°
2026-05-05 21:41 41.47829 65.81728 34903 ft 516 kts 86°
2026-05-05 21:41 41.47906 65.91260 34963 ft 516 kts 86°
2026-05-05 21:42 41.47976 66.00795 34979 ft 516 kts 86°
2026-05-05 21:42 41.48040 66.10335 34984 ft 516 kts 86°
2026-05-05 21:43 41.48095 66.19866 34985 ft 516 kts 86°
2026-05-05 21:43 41.48141 66.29359 34987 ft 515 kts 86°
2026-05-05 21:44 41.48182 66.38893 34987 ft 515 kts 86°
2026-05-05 21:44 41.48216 66.48412 34988 ft 515 kts 86°
2026-05-05 21:45 41.48120 66.57940 34987 ft 516 kts 90°
2026-05-05 21:45 41.47300 66.67436 34988 ft 519 kts 97°
2026-05-05 21:46 41.45924 66.76914 34991 ft 519 kts 99°
2026-05-05 21:46 41.44522 66.86325 34992 ft 519 kts 98°
2026-05-05 21:47 41.43143 66.95630 34992 ft 519 kts 98°
2026-05-05 21:47 41.41755 67.05011 34993 ft 519 kts 98°
2026-05-05 21:48 41.40355 67.14415 34995 ft 519 kts 98°
2026-05-05 21:48 41.38945 67.23840 34995 ft 519 kts 98°
2026-05-05 21:49 41.37529 67.33245 34996 ft 518 kts 98°
2026-05-05 21:49 41.36113 67.42602 34996 ft 519 kts 98°
2026-05-05 21:50 41.34682 67.52003 34996 ft 519 kts 98°
2026-05-05 21:50 41.33242 67.61407 34996 ft 519 kts 98°
2026-05-05 21:51 41.31784 67.70899 34994 ft 519 kts 98°
2026-05-05 21:51 41.30330 67.80306 34999 ft 519 kts 99°
2026-05-05 21:52 41.28228 67.94370 35003 ft 518 kts 95°
2026-05-05 21:53 41.27326 68.03839 35006 ft 517 kts 93°
2026-05-05 21:53 41.26497 68.13310 35006 ft 516 kts 93°
2026-05-05 21:54 41.25666 68.22643 35007 ft 515 kts 93°
2026-05-05 21:54 41.24815 68.32056 35009 ft 515 kts 93°
2026-05-05 21:55 41.23952 68.41479 35011 ft 515 kts 93°
2026-05-05 21:55 41.23080 68.50915 35000 ft 514 kts 93°
2026-05-05 21:55 41.22646 68.55608 35134 ft 514 kts 93°
2026-05-05 21:56 41.22211 68.60266 35060 ft 513 kts 93°
2026-05-05 21:56 41.21325 68.69694 35029 ft 513 kts 93°
2026-05-05 21:57 41.20440 68.79065 35027 ft 513 kts 94°
2026-05-05 21:57 41.19544 68.88440 35029 ft 513 kts 93°
2026-05-05 21:58 41.19029 68.97842 35034 ft 509 kts 88°
2026-05-05 21:58 41.18810 69.07252 35035 ft 509 kts 87°
2026-05-05 21:59 41.18583 69.16665 35035 ft 508 kts 88°
2026-05-05 21:59 41.18140 69.26075 35045 ft 510 kts 91°
2026-05-05 22:00 41.17371 69.35457 35043 ft 509 kts 92°
2026-05-05 22:00 41.16595 69.44777 35056 ft 510 kts 92°
2026-05-05 22:01 41.15814 69.54173 35080 ft 509 kts 91°
2026-05-05 22:01 41.15031 69.63533 35110 ft 509 kts 91°
2026-05-05 22:01 41.14638 69.68231 34974 ft 510 kts 92°
2026-05-05 22:02 41.14241 69.72959 35071 ft 511 kts 92°
2026-05-05 22:02 41.13444 69.82328 35175 ft 510 kts 92°
2026-05-05 22:03 41.12631 69.91816 35224 ft 510 kts 92°
2026-05-05 22:03 41.11824 70.01157 35253 ft 510 kts 92°
2026-05-05 22:04 41.11008 70.10523 35273 ft 509 kts 92°
2026-05-05 22:04 41.10276 70.19855 35286 ft 507 kts 89°
2026-05-05 22:05 41.10194 70.29131 35298 ft 502 kts 83°
2026-05-05 22:05 41.10779 70.38355 35300 ft 499 kts 79°
2026-05-05 22:06 41.11484 70.47543 35301 ft 498 kts 79°
2026-05-05 22:06 41.12157 70.56641 35297 ft 497 kts 79°
2026-05-05 22:07 41.12810 70.65715 35304 ft 497 kts 80°
2026-05-05 22:07 41.13452 70.74808 35307 ft 497 kts 81°
2026-05-05 22:08 41.14074 70.83901 35310 ft 498 kts 81°
2026-05-05 22:08 41.14692 70.93005 35315 ft 497 kts 81°
2026-05-05 22:09 41.15308 71.02118 35305 ft 496 kts 81°
2026-05-05 22:09 41.15917 71.11205 35280 ft 495 kts 81°
2026-05-05 22:10 41.16514 71.20228 35273 ft 495 kts 81°
2026-05-05 22:10 41.17110 71.29336 35248 ft 495 kts 81°
2026-05-05 22:11 41.17693 71.38361 35237 ft 495 kts 81°
2026-05-05 22:11 41.18274 71.47461 35221 ft 495 kts 81°
2026-05-05 22:12 41.18845 71.56514 35203 ft 495 kts 82°
2026-05-05 22:12 41.19415 71.65633 35196 ft 495 kts 82°
2026-05-05 22:13 41.19974 71.74709 35195 ft 495 kts 82°
2026-05-05 22:13 41.20521 71.83796 35181 ft 494 kts 83°
2026-05-05 22:14 41.21057 71.92934 35179 ft 493 kts 83°
2026-05-05 22:14 41.21587 72.01960 35173 ft 493 kts 83°
2026-05-05 22:15 41.22115 72.11054 35171 ft 493 kts 83°
2026-05-05 22:15 41.22629 72.20054 35166 ft 492 kts 83°
2026-05-05 22:16 41.23134 72.29117 35171 ft 491 kts 83°
2026-05-05 22:16 41.23632 72.38171 35194 ft 491 kts 83°
2026-05-05 22:17 41.24129 72.47243 35205 ft 491 kts 83°
2026-05-05 22:17 41.24616 72.56237 35224 ft 489 kts 83°
2026-05-05 22:18 41.25097 72.65266 35235 ft 488 kts 84°
2026-05-05 22:18 41.25571 72.74291 35251 ft 488 kts 84°
2026-05-05 22:19 41.26038 72.83292 35256 ft 488 kts 84°
2026-05-05 22:19 41.26498 72.92319 35235 ft 488 kts 84°
2026-05-05 22:20 41.26947 73.01264 35232 ft 487 kts 85°
2026-05-05 22:20 41.27393 73.10288 35259 ft 487 kts 85°
2026-05-05 22:21 41.27829 73.19273 35298 ft 487 kts 84°
2026-05-05 22:21 41.28260 73.28263 35337 ft 486 kts 84°
2026-05-05 22:22 41.28684 73.37270 35359 ft 485 kts 84°
2026-05-05 22:22 41.29098 73.46210 35376 ft 486 kts 84°
2026-05-05 22:23 41.29505 73.55168 35396 ft 486 kts 84°
2026-05-05 22:23 41.29908 73.64130 35419 ft 486 kts 84°
2026-05-05 22:24 41.30304 73.73103 35444 ft 485 kts 85°
2026-05-05 22:24 41.30694 73.82069 35476 ft 485 kts 85°
2026-05-05 22:25 41.31077 73.91012 35494 ft 485 kts 85°
2026-05-05 22:25 41.31459 73.99963 35497 ft 484 kts 84°
2026-05-05 22:26 41.32069 74.08896 35847 ft 485 kts 83°
2026-05-05 22:26 41.32387 74.13322 36189 ft 482 kts 82°
2026-05-05 22:26 41.32703 74.17715 36521 ft 481 kts 82°
2026-05-05 22:26 41.33020 74.22139 36803 ft 482 kts 82°
2026-05-05 22:27 41.33337 74.26579 37042 ft 482 kts 82°
2026-05-05 22:27 41.33649 74.30988 37280 ft 483 kts 82°
2026-05-05 22:27 41.33962 74.35424 37497 ft 483 kts 82°
2026-05-05 22:28 41.34583 74.44331 37516 ft 484 kts 82°
2026-05-05 22:28 41.35195 74.53190 37514 ft 483 kts 83°
2026-05-05 22:29 41.35797 74.62027 37513 ft 482 kts 83°
2026-05-05 22:29 41.36393 74.70876 37517 ft 482 kts 83°
2026-05-05 22:30 41.36982 74.79730 37522 ft 481 kts 83°
2026-05-05 22:30 41.37568 74.88611 37525 ft 481 kts 83°
2026-05-05 22:31 41.38139 74.97400 37526 ft 481 kts 84°
2026-05-05 22:31 41.38708 75.06261 37542 ft 481 kts 84°
2026-05-05 22:32 41.39272 75.15116 37539 ft 481 kts 83°
2026-05-05 22:32 41.39829 75.23989 37539 ft 481 kts 83°
2026-05-05 22:33 41.40375 75.32786 37547 ft 480 kts 84°
2026-05-05 22:33 41.40918 75.41662 37555 ft 481 kts 83°
2026-05-05 22:34 41.41453 75.50472 37564 ft 481 kts 83°
2026-05-05 22:34 41.41986 75.59367 37569 ft 481 kts 84°
2026-05-05 22:35 41.42511 75.68231 37580 ft 481 kts 84°
2026-05-05 22:35 41.43023 75.77084 37580 ft 482 kts 84°
2026-05-05 22:36 41.43521 75.85917 37599 ft 482 kts 84°
2026-05-05 22:36 41.44023 75.94860 37598 ft 483 kts 84°
2026-05-05 22:37 41.44515 76.03699 37593 ft 483 kts 84°
2026-05-05 22:37 41.45007 76.12629 37591 ft 482 kts 84°
2026-05-05 22:38 41.45488 76.21510 37593 ft 482 kts 84°
2026-05-05 22:38 41.45964 76.30390 37593 ft 482 kts 84°
2026-05-05 22:39 41.46431 76.39253 37583 ft 482 kts 84°
2026-05-05 22:39 41.46893 76.48138 37584 ft 482 kts 84°
2026-05-05 22:40 41.47350 76.57069 37561 ft 481 kts 84°
2026-05-05 22:40 41.47799 76.65958 37549 ft 481 kts 85°
2026-05-05 22:41 41.48237 76.74767 37568 ft 481 kts 85°
2026-05-05 22:41 41.48673 76.83682 37566 ft 481 kts 85°
2026-05-05 22:42 41.49100 76.92560 37560 ft 481 kts 85°
2026-05-05 22:42 41.49521 77.01459 37559 ft 480 kts 85°
2026-05-05 22:43 41.49937 77.10398 37564 ft 480 kts 85°
2026-05-05 22:43 41.50343 77.19249 37559 ft 479 kts 85°
2026-05-05 22:44 41.50743 77.28148 37565 ft 479 kts 85°
2026-05-05 22:44 41.51135 77.37011 37572 ft 479 kts 85°
2026-05-05 22:45 41.51519 77.45834 37582 ft 479 kts 85°
2026-05-05 22:45 41.51895 77.54670 37589 ft 478 kts 85°
2026-05-05 22:46 41.52267 77.63532 37608 ft 478 kts 85°
2026-05-05 22:46 41.52632 77.72397 37623 ft 478 kts 85°
2026-05-05 22:47 41.52990 77.81229 37624 ft 477 kts 85°
2026-05-05 22:47 41.53338 77.90022 37621 ft 477 kts 85°
2026-05-05 22:48 41.53683 77.98880 37630 ft 477 kts 85°
2026-05-05 22:48 41.54019 78.07719 37631 ft 477 kts 85°
2026-05-05 22:49 41.54345 78.16460 37622 ft 477 kts 85°
2026-05-05 22:49 41.54670 78.25331 37619 ft 477 kts 85°
2026-05-05 22:50 41.54986 78.34123 37607 ft 477 kts 85°
2026-05-05 22:50 41.55298 78.42951 37599 ft 477 kts 85°
2026-05-05 22:51 41.55602 78.51775 37598 ft 477 kts 85°
2026-05-05 22:51 41.55902 78.60628 37575 ft 477 kts 85°
2026-05-05 22:52 41.56194 78.69504 37562 ft 478 kts 86°
2026-05-05 22:52 41.56194 78.78346 37561 ft 479 kts 92°
2026-05-05 22:53 41.55479 78.87189 37527 ft 481 kts 98°
2026-05-05 22:53 41.54058 78.95856 37524 ft 481 kts 103°
2026-05-05 22:54 41.52288 79.04464 37510 ft 481 kts 104°
2026-05-05 22:54 41.50518 79.13036 37525 ft 481 kts 104°
2026-05-05 22:55 41.48745 79.21626 37518 ft 482 kts 104°
2026-05-05 22:55 41.46972 79.30193 37506 ft 481 kts 104°
2026-05-05 22:56 41.45185 79.38796 37510 ft 482 kts 104°
2026-05-05 22:56 41.43388 79.47407 37515 ft 483 kts 104°
2026-05-05 22:57 41.41592 79.55989 37489 ft 483 kts 104°
2026-05-05 22:57 41.39778 79.64619 37452 ft 482 kts 104°
2026-05-05 22:58 41.37952 79.73268 37501 ft 482 kts 104°
2026-05-05 22:58 41.36137 79.81834 37431 ft 482 kts 104°
2026-05-05 22:59 41.34308 79.90430 37421 ft 482 kts 104°
2026-05-05 22:59 41.32482 79.98983 37400 ft 483 kts 104°
2026-05-05 23:00 41.29702 80.11945 37418 ft 484 kts 104°
2026-05-05 23:00 41.27835 80.20622 37391 ft 484 kts 104°
2026-05-05 23:01 41.25965 80.29259 37387 ft 484 kts 104°
2026-05-05 23:01 41.24155 80.37878 37297 ft 484 kts 104°
2026-05-05 23:02 41.22362 80.46506 37311 ft 484 kts 104°
2026-05-05 23:02 41.20556 80.55154 37299 ft 485 kts 104°
2026-05-05 23:03 41.18745 80.63792 37278 ft 485 kts 104°
2026-05-05 23:03 41.16923 80.72432 37279 ft 486 kts 104°
2026-05-05 23:04 41.15097 80.81065 37262 ft 486 kts 104°
2026-05-05 23:04 41.13261 80.89706 37204 ft 486 kts 104°
2026-05-05 23:05 41.11440 80.98245 37195 ft 486 kts 104°
2026-05-05 23:05 41.09586 81.06902 37203 ft 486 kts 104°
2026-05-05 23:06 41.08103 81.13806 37177 ft 486 kts 104°
2026-05-05 23:06 41.06252 81.22388 37178 ft 488 kts 105°
2026-05-05 23:07 41.04386 81.31007 37188 ft 488 kts 104°
2026-05-05 23:07 41.02516 81.39612 37165 ft 487 kts 104°
2026-05-05 23:08 41.00633 81.48250 37170 ft 487 kts 104°
2026-05-05 23:08 40.98749 81.56878 37163 ft 488 kts 104°
2026-05-05 23:09 40.96864 81.65459 37154 ft 488 kts 104°
2026-05-05 23:09 40.95176 81.74123 37158 ft 488 kts 103°
2026-05-05 23:10 40.93520 81.82838 37159 ft 488 kts 103°
2026-05-05 23:10 40.91871 81.91499 37157 ft 488 kts 103°
2026-05-05 23:11 40.90205 82.00211 37157 ft 488 kts 103°
2026-05-05 23:11 40.88544 82.08859 37158 ft 488 kts 103°
2026-05-05 23:12 40.86876 82.17507 37159 ft 489 kts 103°
2026-05-05 23:12 40.85188 82.26223 37158 ft 490 kts 103°
2026-05-05 23:13 40.83504 82.34872 37162 ft 490 kts 103°
2026-05-05 23:13 40.81799 82.43599 37164 ft 491 kts 103°
2026-05-05 23:14 40.80088 82.52316 37163 ft 491 kts 103°
2026-05-05 23:14 40.78371 82.61030 37167 ft 491 kts 103°
2026-05-05 23:15 40.76639 82.69780 37161 ft 492 kts 104°
2026-05-05 23:15 40.74908 82.78479 37167 ft 492 kts 104°
2026-05-05 23:16 40.73162 82.87230 37170 ft 493 kts 104°
2026-05-05 23:16 40.71420 82.95921 37174 ft 493 kts 104°
2026-05-05 23:17 40.69661 83.04659 37164 ft 493 kts 104°
2026-05-05 23:17 40.67891 83.13406 37158 ft 494 kts 104°
2026-05-05 23:18 40.66111 83.22172 37167 ft 495 kts 104°
2026-05-05 23:18 40.64322 83.30936 37172 ft 495 kts 104°
2026-05-05 23:19 40.62538 83.39645 37167 ft 496 kts 104°
2026-05-05 23:19 40.60744 83.48364 37164 ft 497 kts 104°
2026-05-05 23:20 40.58936 83.57124 37164 ft 497 kts 104°
2026-05-05 23:20 40.57127 83.65856 37163 ft 498 kts 105°
2026-05-05 23:21 40.55304 83.74631 37157 ft 499 kts 105°
2026-05-05 23:21 40.53476 83.83398 37162 ft 500 kts 105°
2026-05-05 23:22 40.51632 83.92194 37164 ft 501 kts 105°
2026-05-05 23:22 40.49813 84.01023 37158 ft 502 kts 105°
2026-05-05 23:23 40.48027 84.09825 37163 ft 502 kts 104°
2026-05-05 23:23 40.46231 84.18665 37156 ft 503 kts 105°
2026-05-05 23:24 40.44426 84.27502 37158 ft 504 kts 105°
2026-05-05 23:24 40.42607 84.36373 37157 ft 504 kts 105°
2026-05-05 23:25 40.40789 84.45180 37159 ft 504 kts 105°
2026-05-05 23:25 40.38960 84.54018 37160 ft 505 kts 105°
2026-05-05 23:26 40.37115 84.62887 37164 ft 506 kts 105°
2026-05-05 23:26 40.35256 84.71789 37164 ft 507 kts 105°
2026-05-05 23:27 40.33401 84.80634 37167 ft 508 kts 106°
2026-05-05 23:27 40.31533 84.89513 37160 ft 507 kts 106°
2026-05-05 23:28 40.29647 84.98419 37155 ft 508 kts 106°
2026-05-05 23:28 40.27754 85.07332 37155 ft 509 kts 106°
2026-05-05 23:29 40.25858 85.16226 37148 ft 509 kts 106°
2026-05-05 23:29 40.23959 85.25098 37154 ft 511 kts 106°
2026-05-05 23:30 40.22358 85.32553 37154 ft 511 kts 106°
2026-05-05 23:30 40.20117 85.42943 37153 ft 511 kts 106°
2026-05-05 23:31 40.18189 85.51845 37159 ft 512 kts 106°
2026-05-05 23:31 40.16246 85.60778 37156 ft 513 kts 106°
2026-05-05 23:32 40.14293 85.69724 37151 ft 514 kts 107°
2026-05-05 23:32 40.12336 85.78660 37155 ft 515 kts 107°
2026-05-05 23:33 40.10368 85.87622 37153 ft 515 kts 107°
2026-05-05 23:33 40.08380 85.96617 37157 ft 517 kts 108°
2026-05-05 23:34 40.06153 86.05474 37157 ft 516 kts 111°
2026-05-05 23:34 40.03746 86.14260 37160 ft 517 kts 111°
2026-05-05 23:35 40.01339 86.23040 37159 ft 518 kts 111°
2026-05-05 23:35 39.98916 86.31883 37160 ft 519 kts 111°
2026-05-05 23:36 39.92178 86.56390 37202 ft 518 kts 111°
2026-05-05 23:36 39.89724 86.65228 37162 ft 520 kts 112°
2026-05-05 23:37 39.87252 86.74104 37149 ft 520 kts 112°
2026-05-05 23:37 39.84790 86.82923 37146 ft 521 kts 112°
2026-05-05 23:38 39.82309 86.91782 37150 ft 522 kts 112°
2026-05-05 23:38 39.79817 87.00648 37148 ft 523 kts 112°
2026-05-05 23:39 39.77325 87.09486 37146 ft 523 kts 112°
2026-05-05 23:39 39.74825 87.18321 37143 ft 523 kts 113°
2026-05-05 23:40 39.72302 87.27214 37142 ft 523 kts 112°
2026-05-05 23:40 39.69788 87.36031 37146 ft 523 kts 112°
2026-05-05 23:41 39.67247 87.44930 37138 ft 523 kts 112°
2026-05-05 23:41 39.64702 87.53802 37126 ft 524 kts 112°
2026-05-05 23:42 39.62141 87.62696 37136 ft 525 kts 112°
2026-05-05 23:42 39.59578 87.71581 37137 ft 525 kts 113°
2026-05-05 23:43 39.56999 87.80482 37127 ft 526 kts 114°
2026-05-05 23:43 39.54424 87.89340 37127 ft 526 kts 114°
2026-05-05 23:44 39.51843 87.98186 37127 ft 527 kts 113°
2026-05-05 23:44 39.49237 88.07082 37118 ft 527 kts 114°
2026-05-05 23:45 39.46652 88.15891 37116 ft 526 kts 114°
2026-05-05 23:45 39.44043 88.24747 37114 ft 526 kts 113°
2026-05-05 23:46 39.41428 88.33592 37131 ft 527 kts 113°
2026-05-05 23:46 39.38806 88.42442 37139 ft 525 kts 114°
2026-05-05 23:47 39.36168 88.51304 37147 ft 526 kts 114°
2026-05-05 23:47 39.33546 88.60097 37145 ft 525 kts 114°
2026-05-05 23:48 39.30901 88.68926 37165 ft 525 kts 114°
2026-05-05 23:48 39.28265 88.77692 37176 ft 525 kts 115°
2026-05-05 23:49 39.25618 88.86469 37177 ft 525 kts 115°
2026-05-05 23:49 39.22973 88.95225 37197 ft 524 kts 115°
2026-05-05 23:50 39.20314 89.03987 37219 ft 524 kts 115°
2026-05-05 23:50 39.17638 89.12775 37227 ft 524 kts 115°
2026-05-05 23:51 39.14964 89.21539 37231 ft 524 kts 115°
2026-05-05 23:51 39.12276 89.30310 37273 ft 523 kts 115°
2026-05-05 23:52 39.09606 89.39001 37306 ft 523 kts 115°
2026-05-05 23:52 39.06945 89.47633 37337 ft 522 kts 115°
2026-05-05 23:53 39.04259 89.56318 37353 ft 522 kts 115°
2026-05-05 23:53 39.01562 89.65010 37408 ft 522 kts 115°
2026-05-05 23:54 38.98875 89.73655 37446 ft 521 kts 115°
2026-05-05 23:54 38.96161 89.82346 37447 ft 523 kts 115°
2026-05-05 23:55 38.93455 89.90995 37448 ft 522 kts 115°
2026-05-05 23:55 38.90749 89.99612 37456 ft 522 kts 115°
2026-05-05 23:56 38.88026 90.08266 37450 ft 521 kts 115°
2026-05-05 23:56 38.85305 90.16885 37454 ft 521 kts 115°
2026-05-05 23:57 38.82578 90.25512 37457 ft 522 kts 115°
2026-05-05 23:57 38.79825 90.34180 37460 ft 522 kts 115°
2026-05-05 23:58 38.77072 90.42781 37459 ft 522 kts 115°
2026-05-05 23:58 38.74320 90.51382 37457 ft 522 kts 115°
2026-05-05 23:59 38.71559 90.60005 37535 ft 521 kts 115°
2026-05-05 23:59 38.68806 90.68584 37470 ft 520 kts 116°
2026-05-06 00:00 38.66273 90.77300 37465 ft 522 kts 113°
2026-05-06 00:00 38.63840 90.86012 37458 ft 523 kts 113°
2026-05-06 00:01 38.61404 90.94752 37459 ft 523 kts 113°
2026-05-06 00:01 38.58932 91.03558 37454 ft 524 kts 113°
2026-05-06 00:02 38.56458 91.12339 37447 ft 524 kts 113°
2026-05-06 00:02 38.53991 91.21067 37448 ft 524 kts 113°
2026-05-06 00:03 38.51511 91.29820 37455 ft 524 kts 113°
2026-05-06 00:03 38.49009 91.38612 37457 ft 524 kts 113°
2026-05-06 00:04 38.46517 91.47334 37459 ft 525 kts 113°
2026-05-06 00:04 38.44006 91.56110 37455 ft 525 kts 113°
2026-05-06 00:05 38.40226 91.69265 37445 ft 525 kts 114°
2026-05-06 00:06 38.37701 91.78008 37446 ft 525 kts 113°
2026-05-06 00:06 38.35173 91.86736 37443 ft 525 kts 114°
2026-05-06 00:07 38.32637 91.95461 37438 ft 526 kts 113°
2026-05-06 00:07 38.30104 92.04156 37429 ft 526 kts 113°
2026-05-06 00:08 38.27562 92.12857 37432 ft 525 kts 113°
2026-05-06 00:08 38.25012 92.21555 37431 ft 526 kts 113°
2026-05-06 00:09 38.22465 92.30229 37426 ft 525 kts 113°
2026-05-06 00:09 38.19892 92.38969 37413 ft 525 kts 113°
2026-05-06 00:10 38.17314 92.47670 37415 ft 526 kts 114°
2026-05-06 00:10 38.14365 92.56128 37407 ft 524 kts 118°
2026-05-06 00:11 38.11225 92.64503 37413 ft 525 kts 118°
2026-05-06 00:11 38.08097 92.72852 37392 ft 523 kts 118°
2026-05-06 00:12 38.04977 92.81186 37396 ft 524 kts 119°
2026-05-06 00:12 38.01839 92.89565 37398 ft 524 kts 119°
2026-05-06 00:13 37.98722 92.97860 37400 ft 524 kts 119°
2026-05-06 00:13 37.95583 93.06191 37394 ft 524 kts 119°
2026-05-06 00:14 37.92439 93.14519 37395 ft 523 kts 119°
2026-05-06 00:14 37.89285 93.22844 37395 ft 524 kts 118°
2026-05-06 00:15 37.86134 93.31145 37402 ft 523 kts 118°
2026-05-06 00:15 37.82967 93.39465 37395 ft 523 kts 119°
2026-05-06 00:16 37.79817 93.47714 37391 ft 523 kts 118°
2026-05-06 00:16 37.76630 93.56039 37390 ft 523 kts 119°